VANGUARD R/B, 12

Orbit data source: Space-Track

VANGUARD R/B, 12 is space debris in LEO originally from a launch on Tue, 17 Feb 1959 UTC launched from the Air Force Eastern Test Range (AFETR). Debris objects in space refer to the collection of defunct objects orbiting the Earth. Examples of debris include non-operational satellites, rocket bodies, and fragments generated from explosions, collisions, or faulty payload assembly.

Loading next visibility...
Identifier
12, 1959-001B
Orbit
LEO
Country
Flag of USUS
Related business
Manufacturer
GCR/Redlands
Mission
Spacecraft
Bus & Motor
33-KS-2800, Unknown motor
Mass
22 kg wet, 22 kg dry
Launch date (UTC)
1959-02-17 (67 years ago)
Launch vehicle
Unknown
Launch site
Air Force Eastern Test Range (AFETR)
Object type
Payload
Rocket body
Debris
Shape & HBR
Unknown
Radar Cross Section
Medium (>0.1 m² and <1 m²)

Expand to show TLE details & history
Last TLE update: 14 hours ago

TLE from 14 hours ago
0 VANGUARD R/B
1 00012U 59001B   25352.46272413  .00001065  00000-0  59882-3 0  9991
2 00012  32.9045 142.1426 1647756 228.1326 116.6613 11.48407533510543
Epoch: 2025-12-18T11:06Z
TLE epoch observation values (Epoch: 2025-12-18T11:06:19.364Z)
Latitude
-0.00004°
Longitude
-111.75602°
Altitude
2,692.555 km
Speed
6.315 km/s
True Right ascension
09h 28m 34s
True Declination
0° 00' 00"
Sunlit
Object was in daylight at epoch
Visualization orbit readout
Latitude
Unknown
Longitude
Unknown
Altitude
Unknown
Speed
Unknown
Apparent Right ascension
Unknown
Apparent Declination
Unknown
Sunlit
N/A
Visualization observer readout
Local Sidereal Time
00:02:09
Azimuth
Unknown
Elevation
Unknown
Doppler factor
Unknown
Orbital elements
Apogee altitude
3,291.459 km
Perigee altitude
555.63 km
Semi-major axis
8,301.682 km
Eccentricity
0.16478
Inclination
32.9045°
RAAN
142.1426°
Arg. of periapsis
228.1326°
True anomaly
131.92389°
Mean anomaly
116.6613°
Eccentric anomaly
124.44679°
Mean motion
2.86942 °/min
Orbital period
125.46 mins
BSTAR
0.00059882
Loading maneuver chart data...
Computing Atmospheric mass density...
Loading historical data...
Loading historical data...
Loading historical data...
Loading historical data...
Loading historical data...
Loading historical data...
Loading historical data...
Other satellites on launch #1 in the year 1959 (1959-02-17 UTC)

Documentation

Showing up to 5 results
|